Bad Axe, MI

3:56 AM EDT on September 18, 2019 (GMT -0400)
Huron County Memorial

Weather History for KBAX - August, 2019

Change the Weather History Date:

Friday, August 16, 2019

  Actual Average (KP58) Record (KP58)
Temperature  
Mean Temperature 66 °F -  
Max Temperature 77 °F 72 °F 88 °F (1997)
Min Temperature 55 °F 57 °F 6 °F (1996)
Cooling Degree Days 1    
Growing Degree Days 16 (Base 50)    
Moisture  
Dew Point 59 °F    
Average Humidity 79    
Maximum Humidity 98    
Minimum Humidity 52    
Precipitation  
Precipitation 0.00 in - - ()
Sea Level Pressure  
Sea Level Pressure 29.96 in    
Wind  
Wind Speed 1 mph ()    
Max Wind Speed 7 mph    
Max Gust Speed -    
Visibility 9.4 miles    
Events      
Averages and records for this station are not official NWS values.
T = Trace of Precipitation, MM = Missing Value Source: Averaged Metar Reports

Daily Weather History Graph

Daily Weather History Graph

Search for Another Location

Airport or City:

Astronomy

Aug. 16, 2019 Rise Set
Actual Time 6:37 AM EDT 8:34 PM EDT
Civil Twilight 6:06 AM EDT 9:05 PM EDT
Nautical Twilight 5:27 AM EDT 9:43 PM EDT
Astronomical Twilight 4:46 AM EDT 10:24 PM EDT
Moon 9:32 PM EDT (8/16) 7:27 AM EDT (8/16)
Length of Visible Light 14h 59m
Length of Day
13h 57m
Full, 99% of the Moon is Illuminated
Aug 16
Full
Aug 23
Last Quarter
Aug 30
New
Sep 5
First Quarter
Sep 14
Full

Hourly Weather History & Observations

Time (EDT) Temp. Dew Point Humidity Pressure Visibility Wind Dir Wind Speed Gust Speed Precip Events Conditions
12:16 AM 58.6 °F 58.1 °F 98% 29.98 in 7.0 mi NNW 3.5 mph - N/A   Overcast
12:59 AM 59.9 °F 59.0 °F 97% 29.99 in 10.0 mi Calm Calm - N/A   Overcast
1:17 AM 59.9 °F 59.0 °F 97% 29.99 in 10.0 mi Calm Calm - N/A   Overcast
1:36 AM 59.9 °F 59.0 °F 97% 29.99 in 10.0 mi Calm Calm - N/A   Overcast
1:55 AM 60.3 °F 59.4 °F 97% 29.99 in 10.0 mi Calm Calm - N/A   Overcast
2:15 AM 60.3 °F 59.4 °F 97% 30.00 in 10.0 mi Calm Calm - N/A   Overcast
2:38 AM 60.3 °F 59.2 °F 96% 30.00 in 10.0 mi Calm Calm - N/A   Overcast
2:56 AM 60.3 °F 59.0 °F 96% 30.01 in 10.0 mi Calm Calm - N/A   Overcast
3:15 AM 59.9 °F 58.5 °F 95% 30.01 in 10.0 mi Calm Calm - N/A   Overcast
3:35 AM 60.1 °F 58.6 °F 95% 30.00 in 10.0 mi Calm Calm - N/A   Overcast
3:59 AM 60.4 °F 59.0 °F 95% 30.00 in 10.0 mi Calm Calm - N/A   Overcast
4:17 AM 60.8 °F 59.2 °F 94% 30.00 in 10.0 mi Calm Calm - N/A   Overcast
4:36 AM 60.1 °F 58.3 °F 94% 29.99 in 10.0 mi Calm Calm - N/A   Mostly Cloudy
4:55 AM 59.2 °F 57.6 °F 94% 29.99 in 10.0 mi Calm Calm - N/A   Scattered Clouds
5:15 AM 59.0 °F 57.2 °F 94% 29.99 in 10.0 mi Calm Calm - N/A   Scattered Clouds
5:38 AM 57.6 °F 56.1 °F 95% 29.98 in 10.0 mi Calm Calm - N/A   Clear
5:55 AM 56.3 °F 55.0 °F 96% 29.98 in 5.0 mi Calm Calm - N/A   Scattered Clouds
6:16 AM 55.0 °F 54.0 °F 96% 29.98 in 5.0 mi Calm Calm - N/A   Mostly Cloudy
6:35 AM 55.0 °F 54.1 °F 97% 29.98 in 1.8 mi Calm Calm - N/A   Mostly Cloudy
6:59 AM 55.2 °F 54.3 °F 97% 29.98 in 2.5 mi Calm Calm - N/A   Scattered Clouds
7:17 AM 55.6 °F 54.9 °F 97% 29.99 in 2.5 mi Calm Calm - N/A   Mostly Cloudy
7:36 AM 56.8 °F 56.1 °F 97% 29.99 in 10.0 mi Calm Calm - N/A   Overcast
7:55 AM 56.8 °F 55.9 °F 97% 29.99 in 7.0 mi Calm Calm - N/A   Overcast
8:15 AM 58.1 °F 57.2 °F 97% 29.99 in 10.0 mi Calm Calm - N/A   Scattered Clouds
8:38 AM 60.8 °F 59.7 °F 96% 29.99 in 10.0 mi Calm Calm - N/A   Clear
8:56 AM 63.1 °F 60.8 °F 92% 30.00 in 10.0 mi Calm Calm - N/A   Mostly Cloudy
9:15 AM 65.7 °F 61.3 °F 86% 29.99 in 10.0 mi Calm Calm - N/A   Overcast
9:35 AM 67.1 °F 61.3 °F 82% 29.99 in 10.0 mi NE 3.5 mph - N/A   Scattered Clouds
9:59 AM 68.2 °F 61.3 °F 79% 29.99 in 10.0 mi East 5.8 mph - N/A   Scattered Clouds
10:17 AM 68.5 °F 61.3 °F 78% 30.00 in 10.0 mi NE 5.8 mph - N/A   Scattered Clouds
10:36 AM 69.4 °F 61.5 °F 76% 30.00 in 10.0 mi ENE 3.5 mph - N/A   Mostly Cloudy
10:55 AM 70.5 °F 61.3 °F 73% 30.00 in 10.0 mi ENE 3.5 mph - N/A   Mostly Cloudy
11:15 AM 69.8 °F 60.8 °F 73% 29.99 in 10.0 mi NE 3.5 mph - N/A   Mostly Cloudy
11:38 AM 70.9 °F 60.4 °F 69% 30.00 in 10.0 mi Calm Calm - N/A   Overcast
11:56 AM 70.5 °F 60.6 °F 71% 29.99 in 10.0 mi Calm Calm - N/A   Overcast
12:16 PM 71.8 °F 59.5 °F 65% 29.98 in 10.0 mi Calm Calm - N/A   Overcast
12:35 PM 72.7 °F 60.4 °F 65% 29.98 in 10.0 mi Calm Calm - N/A   Mostly Cloudy
12:59 PM 72.7 °F 60.1 °F 64% 29.98 in 10.0 mi SE 4.6 mph - N/A   Mostly Cloudy
1:17 PM 72.5 °F 60.1 °F 65% 29.98 in 10.0 mi Calm Calm - N/A   Mostly Cloudy
1:36 PM 74.3 °F 59.5 °F 60% 29.98 in 10.0 mi SSE 3.5 mph - N/A   Overcast
1:55 PM 74.7 °F 60.4 °F 61% 29.97 in 10.0 mi SE 4.6 mph - N/A   Mostly Cloudy
2:15 PM 75.4 °F 60.3 °F 59% 29.96 in 10.0 mi SSE 4.6 mph - N/A   Clear
2:38 PM 76.8 °F 60.6 °F 57% 29.96 in 10.0 mi SSW 3.5 mph - N/A   Scattered Clouds
2:56 PM 76.6 °F 59.4 °F 55% 29.96 in 10.0 mi WSW 4.6 mph - N/A   Scattered Clouds
3:16 PM 77.0 °F 59.9 °F 55% 29.95 in 10.0 mi SSW 6.9 mph - N/A   Scattered Clouds
3:36 PM 76.1 °F 58.8 °F 55% 29.95 in 10.0 mi South 6.9 mph - N/A   Mostly Cloudy
3:59 PM 76.1 °F 59.7 °F 57% 29.94 in 10.0 mi SSW 4.6 mph - N/A   Scattered Clouds
4:17 PM 76.3 °F 59.5 °F 56% 29.94 in 10.0 mi WNW 4.6 mph - N/A   Mostly Cloudy
4:36 PM 76.5 °F 61.0 °F 59% 29.93 in 10.0 mi Calm Calm - N/A   Scattered Clouds
4:56 PM 76.8 °F 60.6 °F 57% 29.91 in 10.0 mi North 4.6 mph - N/A   Scattered Clouds
5:15 PM 77.2 °F 59.4 °F 54% 29.91 in 10.0 mi Calm Calm - N/A   Scattered Clouds
5:38 PM 76.6 °F 58.8 °F 54% 29.91 in 10.0 mi East 4.6 mph - N/A   Scattered Clouds
5:56 PM 76.8 °F 59.9 °F 56% 29.91 in 10.0 mi SE 5.8 mph - N/A   Mostly Cloudy
6:16 PM 77.4 °F 60.4 °F 56% 29.91 in 10.0 mi West 3.5 mph - N/A   Scattered Clouds
6:35 PM 76.5 °F 58.6 °F 54% 29.91 in 10.0 mi SW 6.9 mph - N/A   Scattered Clouds
6:59 PM 76.8 °F 57.9 °F 52% 29.90 in 10.0 mi Calm Calm - N/A   Clear
7:17 PM 76.6 °F 58.1 °F 53% 29.91 in 10.0 mi Calm Calm - N/A   Clear
7:36 PM 75.2 °F 60.4 °F 60% 29.91 in 10.0 mi NW 3.5 mph - N/A   Clear
7:55 PM 73.8 °F 61.2 °F 65% 29.90 in 10.0 mi ESE 5.8 mph - N/A   Clear
8:15 PM 71.4 °F 61.7 °F 71% 29.90 in 10.0 mi SE 5.8 mph - N/A   Clear
8:38 PM 70.3 °F 61.7 °F 74% 29.89 in 10.0 mi ESE 5.8 mph - N/A   Clear
8:56 PM 69.1 °F 62.6 °F 80% 29.90 in 10.0 mi Calm Calm - N/A   Clear
9:16 PM 67.3 °F 61.7 °F 82% 29.90 in 10.0 mi Calm Calm - N/A   Clear
9:35 PM 65.5 °F 61.3 °F 86% 29.91 in 10.0 mi Calm Calm - N/A   Clear
9:59 PM 64.6 °F 61.7 °F 90% 29.91 in 10.0 mi Calm Calm - N/A   Clear
10:17 PM 66.2 °F 61.3 °F 84% 29.91 in 10.0 mi Calm Calm - N/A   Clear
10:36 PM 63.7 °F 60.8 °F 90% 29.91 in 10.0 mi Calm Calm - N/A   Scattered Clouds
10:55 PM 65.3 °F 61.5 °F 88% 29.91 in 10.0 mi Calm Calm - N/A   Mostly Cloudy
11:15 PM 66.2 °F 61.7 °F 85% 29.91 in 10.0 mi Calm Calm - N/A   Mostly Cloudy
11:38 PM 66.2 °F 62.1 °F 86% 29.90 in 10.0 mi Calm Calm - N/A   Mostly Cloudy
11:56 PM 65.7 °F 61.7 °F 87% 29.89 in 10.0 mi SSE 5.8 mph - N/A   Scattered Clouds